| time (UTC) | temp F | wind direction | speed knots | gust knots | rain 1hr in | rain 24hr in | rain mn in | humidity % | barometer mb |
| 20260508104607 | 60 | 125 | 4.3 | 7.8 | 0.00 | 0.00 | 0.00 | 69 | 1016.8 |
| 20260508104107 | 60 | 181 | 1.7 | 5.2 | 0.00 | 0.00 | 0.00 | 69 | 1016.8 |
| 20260508103607 | 60 | 215 | 2.6 | 6.1 | 0.00 | 0.00 | 0.00 | 72 | 1016.9 |
| 20260508101607 | 58 | 154 | 1.7 | 7.0 | 0.00 | 0.00 | 0.00 | 77 | 1017.0 |
| 20260508101107 | 58 | 166 | 3.5 | 7.0 | 0.00 | 0.00 | 0.00 | 75 | 1017.0 |
| 20260508100607 | 57 | 158 | 2.6 | 7.0 | 0.00 | 0.00 | 0.00 | 78 | 1017.0 |
| 20260508100108 | 57 | 138 | 4.3 | 7.0 | 0.00 | 0.00 | 0.00 | 78 | 1017.0 |
| 20260508094608 | 55 | 183 | 1.7 | 7.0 | 0.00 | 0.00 | 0.00 | 82 | 1016.9 |
| 20260508094108 | 55 | 222 | 1.7 | 7.0 | 0.00 | 0.00 | 0.00 | 82 | 1017.0 |
| 20260508093107 | 55 | 174 | 0.9 | 6.1 | 0.00 | 0.00 | 0.00 | 83 | 1016.9 |
| 20260508091607 | 54 | 160 | 0.9 | 2.6 | 0.00 | 0.00 | 0.00 | 85 | 1017.0 |
| 20260508091107 | 54 | 168 | 1.7 | 5.2 | 0.00 | 0.00 | 0.00 | 85 | 1017.0 |
| 20260508090107 | 53 | 172 | 2.6 | 5.2 | 0.00 | 0.00 | 0.00 | 86 | 1017.0 |
| 20260508084608 | 52 | 187 | 0.9 | 4.3 | 0.00 | 0.00 | 0.00 | 88 | 1017.0 |
| 20260508084108 | 52 | 159 | 1.7 | 4.3 | 0.00 | 0.00 | 0.00 | 87 | 1017.0 |
| 20260508083607 | 52 | 150 | 1.7 | 4.3 | 0.00 | 0.00 | 0.00 | 88 | 1017.0 |
| 20260508083107 | 52 | 171 | 1.7 | 4.3 | 0.00 | 0.00 | 0.00 | 88 | 1016.9 |
| 20260508081607 | 51 | 160 | 1.7 | 6.1 | 0.00 | 0.00 | 0.00 | 88 | 1016.8 |
| 20260508081107 | 51 | 151 | 3.5 | 7.0 | 0.00 | 0.00 | 0.00 | 89 | 1016.8 |
| 20260508080108 | 51 | 166 | 2.6 | 7.0 | 0.00 | 0.00 | 0.00 | 90 | 1016.7 |
| 20260508073607 | 51 | 143 | 0.9 | 2.6 | 0.00 | 0.00 | 0.00 | 89 | 1016.7 |
| 20260508073107 | 50 | 165 | 0.9 | 2.6 | 0.00 | 0.00 | 0.00 | 89 | 1016.6 |
| 20260508071607 | 50 | 156 | 1.7 | 4.3 | 0.00 | 0.00 | 0.00 | 89 | 1016.6 |
| 20260508071106 | 50 | 169 | 0.9 | 4.3 | 0.00 | 0.00 | 0.00 | 89 | 1016.6 |
| 20260508070608 | 50 | 210 | 0.9 | 2.6 | 0.00 | 0.00 | 0.00 | 89 | 1016.5 |
| 20260508064607 | 50 | 174 | 0.9 | 2.6 | 0.00 | 0.00 | 0.00 | 88 | 1016.3 |
| 20260508063607 | 50 | 142 | 0.9 | 2.6 | 0.00 | 0.00 | 0.00 | 87 | 1016.2 |
| 20260508063107 | 50 | 130 | 0.9 | 2.6 | 0.00 | 0.00 | 0.00 | 87 | 1016.2 |
| 20260508061607 | 50 | 162 | 1.7 | 4.3 | 0.00 | 0.00 | 0.00 | 88 | 1016.0 |
| 20260508061107 | 50 | 154 | 1.7 | 4.3 | 0.00 | 0.00 | 0.00 | 87 | 1016.0 |
| 20260508060607 | 50 | 140 | 0.9 | 2.6 | 0.00 | 0.00 | 0.00 | 88 | 1016.0 |
| 20260508054106 | 50 | 166 | 0.9 | 2.6 | 0.00 | 0.00 | 0.00 | 88 | 1015.8 |
| 20260508053607 | 50 | 122 | 1.7 | 2.6 | 0.00 | 0.00 | 0.00 | 88 | 1015.8 |
| 20260508051607 | 49 | 159 | 1.7 | 6.1 | 0.00 | 0.00 | 0.00 | 88 | 1015.6 |
| 20260508051107 | 49 | 160 | 0.9 | 2.6 | 0.00 | 0.00 | 0.00 | 88 | 1015.6 |
| 20260508050607 | 49 | 162 | 0.9 | 2.6 | 0.00 | 0.00 | 0.00 | 87 | 1015.7 |
| 20260508044607 | 50 | 140 | 1.7 | 4.3 | 0.00 | 0.00 | 0.00 | 87 | 1015.5 |
| 20260508044107 | 50 | 123 | 1.7 | 4.3 | 0.00 | 0.00 | 0.00 | 87 | 1015.5 |
| 20260508043607 | 50 | 135 | 2.6 | 4.3 | 0.00 | 0.00 | 0.00 | 87 | 1015.5 |
| 20260508043108 | 50 | 132 | 1.7 | 2.6 | 0.00 | 0.00 | 0.00 | 86 | 1015.5 |
| 20260508041608 | 50 | 129 | 0.9 | 2.6 | 0.00 | 0.00 | 0.00 | 86 | 1015.6 |
| 20260508041107 | 50 | 129 | 0.0 | 2.6 | 0.00 | 0.00 | 0.00 | 86 | 1015.5 |
| 20260508040607 | 50 | 121 | 0.9 | 2.6 | 0.00 | 0.00 | 0.00 | 86 | 1015.5 |
| 20260508040108 | 50 | 132 | 0.9 | 2.6 | 0.00 | 0.00 | 0.00 | 86 | 1015.4 |
| 20260508034607 | 50 | 123 | 1.7 | 2.6 | 0.00 | 0.00 | 0.00 | 85 | 1015.4 |
| 20260508034108 | 50 | 142 | 0.9 | 4.3 | 0.00 | 0.00 | 0.00 | 85 | 1015.4 |
| 20260508033607 | 50 | 134 | 1.7 | 4.3 | 0.00 | 0.00 | 0.00 | 85 | 1015.4 |
| 20260508033107 | 50 | 159 | 1.7 | 7.0 | 0.00 | 0.00 | 0.00 | 85 | 1015.4 |
| 20260508031607 | 50 | 169 | 1.7 | 5.2 | 0.00 | 0.00 | 0.00 | 85 | 1015.4 |
| 20260508031107 | 50 | 149 | 1.7 | 2.6 | 0.00 | 0.00 | 0.00 | 85 | 1015.3 |
| 20260508030108 | 50 | 164 | 0.0 | 7.0 | 0.00 | 0.00 | 0.00 | 85 | 1015.3 |
| 20260508024107 | 50 | 137 | 0.9 | 2.6 | 0.00 | 0.00 | 0.00 | 85 | 1015.3 |
| 20260508023607 | 50 | 138 | 0.9 | 2.6 | 0.00 | 0.00 | 0.00 | 84 | 1015.4 |
| 20260508023108 | 50 | 61 | 0.0 | 1.7 | 0.00 | 0.00 | 0.00 | 84 | 1015.4 |
| 20260508021107 | 50 | 93 | 0.9 | 2.6 | 0.00 | 0.00 | 0.00 | 83 | 1015.3 |
| 20260508020608 | 50 | 86 | 1.7 | 2.6 | 0.00 | 0.00 | 0.00 | 83 | 1015.2 |
| 20260508020106 | 50 | 113 | 0.0 | 2.6 | 0.00 | 0.00 | 0.00 | 83 | 1015.2 |
| 20260508014607 | 51 | 151 | 2.6 | 7.0 | 0.00 | 0.00 | 0.00 | 82 | 1015.2 |
| 20260508014107 | 51 | 161 | 2.6 | 6.1 | 0.00 | 0.00 | 0.00 | 82 | 1015.2 |
| 20260508013607 | 51 | 147 | 2.6 | 6.1 | 0.00 | 0.00 | 0.00 | 82 | 1015.3 |
| 20260508013107 | 51 | 154 | 2.6 | 7.8 | 0.00 | 0.00 | 0.00 | 82 | 1015.3 |
| 20260508011108 | 50 | 161 | 0.9 | 5.2 | 0.00 | 0.00 | 0.00 | 83 | 1015.4 |
| 20260508010608 | 50 | 165 | 1.7 | 5.2 | 0.00 | 0.00 | 0.00 | 83 | 1015.4 |
| 20260508010107 | 50 | 167 | 1.7 | 5.2 | 0.00 | 0.00 | 0.00 | 83 | 1015.4 |
| 20260508004606 | 50 | 158 | 0.0 | 2.6 | 0.00 | 0.00 | 0.00 | 84 | 1015.4 |
| 20260508004108 | 50 | 163 | 0.0 | 2.6 | 0.00 | 0.00 | 0.00 | 84 | 1015.4 |
| 20260508003107 | 49 | 163 | 1.7 | 2.6 | 0.00 | 0.00 | 0.00 | 84 | 1015.4 |
| 20260508001607 | 49 | 139 | 1.7 | 4.3 | 0.00 | 0.00 | 0.00 | 84 | 1015.5 |
| 20260508001107 | 49 | 146 | 1.7 | 4.3 | 0.00 | 0.00 | 0.00 | 85 | 1015.6 |
| 20260508000606 | 49 | 152 | 1.7 | 4.3 | 0.00 | 0.00 | 0.00 | 85 | 1015.6 |
| 20260508000107 | 49 | 150 | 0.9 | 4.3 | 0.00 | 0.00 | 0.00 | 85 | 1015.6 |
| 20260507234607 | 49 | 113 | 1.7 | 5.2 | 0.00 | 0.00 | 0.00 | 85 | 1015.5 |
| 20260507234107 | 49 | 149 | 0.9 | 4.3 | 0.00 | 0.00 | 0.00 | 85 | 1015.6 |
| 20260507233608 | 49 | 114 | 1.7 | 2.6 | 0.00 | 0.00 | 0.00 | 85 | 1015.6 |
| 20260507233106 | 49 | 142 | 0.9 | 2.6 | 0.00 | 0.00 | 0.00 | 85 | 1015.6 |
| 20260507231107 | 49 | 134 | 1.7 | 5.2 | 0.00 | 0.00 | 0.00 | 86 | 1015.5 |
| 20260507230606 | 49 | 137 | 1.7 | 5.2 | 0.00 | 0.00 | 0.00 | 86 | 1015.5 |
| 20260507230107 | 49 | 135 | 1.7 | 6.1 | 0.00 | 0.00 | 0.00 | 86 | 1015.5 |
| 20260507224606 | 49 | 143 | 1.7 | 4.3 | 0.00 | 0.00 | 0.00 | 86 | 1015.5 |
| 20260507223606 | 49 | 141 | 2.6 | 4.3 | 0.00 | 0.00 | 0.00 | 87 | 1015.6 |
| 20260507223107 | 49 | 141 | 1.7 | 5.2 | 0.00 | 0.00 | 0.00 | 87 | 1015.5 |
| 20260507221607 | 49 | 132 | 3.5 | 7.0 | 0.00 | 0.00 | 0.00 | 87 | 1015.5 |
| 20260507221107 | 49 | 151 | 1.7 | 4.3 | 0.00 | 0.00 | 0.00 | 86 | 1015.5 |
| 20260507220608 | 49 | 154 | 1.7 | 7.0 | 0.00 | 0.00 | 0.00 | 86 | 1015.5 |
| 20260507220107 | 49 | 147 | 2.6 | 7.0 | 0.00 | 0.00 | 0.00 | 86 | 1015.5 |
| 20260507214607 | 50 | 149 | 2.6 | 7.0 | 0.00 | 0.00 | 0.00 | 86 | 1015.4 |
| 20260507214106 | 50 | 150 | 2.6 | 7.0 | 0.00 | 0.00 | 0.00 | 85 | 1015.4 |
| 20260507213607 | 50 | 151 | 3.5 | 7.0 | 0.00 | 0.00 | 0.00 | 85 | 1015.4 |
| 20260507213106 | 50 | 148 | 2.6 | 7.0 | 0.00 | 0.00 | 0.00 | 85 | 1015.4 |
| 20260507211106 | 50 | 149 | 3.5 | 7.8 | 0.00 | 0.00 | 0.00 | 84 | 1015.4 |
| 20260507210607 | 50 | 154 | 2.6 | 6.1 | 0.00 | 0.00 | 0.00 | 84 | 1015.3 |
| 20260507210107 | 50 | 140 | 2.6 | 6.1 | 0.00 | 0.00 | 0.00 | 84 | 1015.4 |
| 20260507204607 | 51 | 145 | 2.6 | 7.0 | 0.00 | 0.00 | 0.00 | 83 | 1015.4 |
| 20260507204108 | 51 | 145 | 1.7 | 7.0 | 0.00 | 0.00 | 0.00 | 83 | 1015.5 |
| 20260507203607 | 51 | 143 | 2.6 | 7.0 | 0.00 | 0.00 | 0.00 | 83 | 1015.5 |
| 20260507203107 | 51 | 145 | 2.6 | 7.0 | 0.00 | 0.00 | 0.00 | 82 | 1015.4 |
| 20260507201607 | 51 | 140 | 2.6 | 7.8 | 0.00 | 0.00 | 0.00 | 81 | 1015.3 |
| 20260507201107 | 51 | 136 | 4.3 | 7.8 | 0.00 | 0.00 | 0.00 | 80 | 1015.2 |
| 20260507200607 | 51 | 142 | 1.7 | 7.0 | 0.00 | 0.00 | 0.00 | 80 | 1015.2 |
| 20260507200107 | 51 | 133 | 1.7 | 4.3 | 0.00 | 0.00 | 0.00 | 79 | 1015.2 |
| 20260507194608 | 52 | 144 | 1.7 | 7.0 | 0.00 | 0.00 | 0.00 | 78 | 1015.0 |
| 20260507194107 | 52 | 144 | 2.6 | 7.0 | 0.00 | 0.00 | 0.00 | 77 | 1015.0 |
| 20260507193607 | 52 | 139 | 2.6 | 7.0 | 0.00 | 0.00 | 0.00 | 77 | 1015.0 |
| 20260507193107 | 53 | 152 | 2.6 | 10.4 | 0.00 | 0.00 | 0.00 | 76 | 1014.9 |
| 20260507191608 | 53 | 158 | 3.5 | 10.4 | 0.00 | 0.00 | 0.00 | 75 | 1014.8 |
| 20260507191107 | 53 | 143 | 5.2 | 10.4 | 0.00 | 0.00 | 0.00 | 74 | 1014.8 |
| 20260507190608 | 54 | 147 | 4.3 | 10.4 | 0.00 | 0.00 | 0.00 | 74 | 1014.8 |
| 20260507190107 | 54 | 152 | 4.3 | 11.3 | 0.00 | 0.00 | 0.00 | 73 | 1014.7 |
| 20260507184608 | 54 | 153 | 4.3 | 11.3 | 0.00 | 0.00 | 0.00 | 75 | 1014.6 |
| 20260507184107 | 54 | 125 | 4.3 | 13.9 | 0.00 | 0.00 | 0.00 | 74 | 1014.5 |
| 20260507183107 | 55 | 133 | 7.8 | 13.0 | 0.00 | 0.00 | 0.00 | 73 | 1014.4 |
| 20260507181607 | 55 | 125 | 6.1 | 13.0 | 0.00 | 0.00 | 0.00 | 72 | 1014.3 |
| 20260507181107 | 55 | 132 | 7.0 | 12.2 | 0.00 | 0.00 | 0.00 | 73 | 1014.2 |
| 20260507180106 | 55 | 131 | 6.1 | 13.9 | 0.00 | 0.00 | 0.00 | 75 | 1014.3 |
| 20260507174608 | 55 | 137 | 7.0 | 13.0 | 0.00 | 0.00 | 0.00 | 76 | 1014.4 |
| 20260507174106 | 55 | 120 | 7.0 | 13.0 | 0.00 | 0.00 | 0.00 | 75 | 1014.3 |
| 20260507173607 | 55 | 127 | 5.2 | 12.2 | 0.00 | 0.00 | 0.00 | 75 | 1014.4 |
| 20260507171606 | 55 | 150 | 6.1 | 13.0 | 0.00 | 0.00 | 0.00 | 75 | 1014.5 |
| 20260507171107 | 55 | 116 | 4.3 | 13.0 | 0.00 | 0.00 | 0.00 | 75 | 1014.5 |
| 20260507170608 | 55 | 126 | 7.0 | 11.3 | 0.00 | 0.00 | 0.00 | 74 | 1014.5 |
| 20260507170107 | 55 | 128 | 6.1 | 13.9 | 0.00 | 0.00 | 0.00 | 74 | 1014.5 |
| 20260507164606 | 55 | 128 | 6.1 | 15.6 | 0.00 | 0.00 | 0.00 | 74 | 1014.4 |
| 20260507163607 | 55 | 121 | 7.8 | 13.0 | 0.00 | 0.00 | 0.00 | 73 | 1014.5 |
| 20260507163107 | 55 | 130 | 5.2 | 14.8 | 0.00 | 0.00 | 0.00 | 74 | 1014.5 |
| 20260507161607 | 55 | 124 | 7.8 | 15.6 | 0.00 | 0.00 | 0.00 | 74 | 1014.6 |
| 20260507161106 | 55 | 112 | 7.8 | 15.6 | 0.00 | 0.00 | 0.00 | 73 | 1014.6 |
| 20260507160607 | 55 | 126 | 7.8 | 15.6 | 0.00 | 0.00 | 0.00 | 74 | 1014.6 |
| 20260507154607 | 55 | 148 | 7.0 | 13.9 | 0.00 | 0.00 | 0.00 | 73 | 1014.7 |
| 20260507154106 | 55 | 121 | 5.2 | 11.3 | 0.00 | 0.00 | 0.00 | 73 | 1014.7 |
| 20260507153608 | 55 | 142 | 7.8 | 13.0 | 0.00 | 0.00 | 0.00 | 73 | 1014.7 |
| 20260507153106 | 55 | 125 | 7.8 | 17.4 | 0.00 | 0.00 | 0.00 | 73 | 1014.7 |
| 20260507151607 | 55 | 118 | 8.7 | 14.8 | 0.00 | 0.00 | 0.00 | 71 | 1014.7 |
| 20260507151106 | 56 | 129 | 7.8 | 14.8 | 0.00 | 0.00 | 0.00 | 71 | 1014.7 |
| 20260507150607 | 56 | 128 | 6.1 | 14.8 | 0.00 | 0.00 | 0.00 | 72 | 1014.7 |
| 20260507150106 | 56 | 140 | 7.8 | 14.8 | 0.00 | 0.00 | 0.00 | 70 | 1014.7 |
| 20260507144607 | 56 | 131 | 6.1 | 12.2 | 0.00 | 0.00 | 0.00 | 70 | 1014.7 |
| 20260507143607 | 56 | 115 | 5.2 | 12.2 | 0.00 | 0.00 | 0.00 | 69 | 1014.8 |
| 20260507141107 | 57 | 129 | 6.1 | 15.6 | 0.00 | 0.00 | 0.00 | 67 | 1015.0 |
| 20260507140607 | 57 | 131 | 6.1 | 15.6 | 0.00 | 0.00 | 0.00 | 67 | 1014.9 |
| 20260507140107 | 58 | 134 | 6.1 | 14.8 | 0.00 | 0.00 | 0.00 | 67 | 1015.0 |
| 20260507134607 | 57 | 137 | 5.2 | 12.2 | 0.00 | 0.00 | 0.00 | 66 | 1015.0 |
| 20260507134107 | 57 | 123 | 7.8 | 12.2 | 0.00 | 0.00 | 0.00 | 67 | 1015.0 |
| 20260507133607 | 57 | 114 | 5.2 | 12.2 | 0.00 | 0.00 | 0.00 | 67 | 1015.0 |
| 20260507133106 | 57 | 120 | 6.1 | 11.3 | 0.00 | 0.00 | 0.00 | 65 | 1015.0 |
| 20260507131607 | 57 | 121 | 6.1 | 13.0 | 0.00 | 0.00 | 0.00 | 66 | 1015.1 |
| 20260507131108 | 56 | 127 | 7.0 | 13.0 | 0.00 | 0.00 | 0.00 | 66 | 1015.1 |
| 20260507130606 | 56 | 134 | 7.0 | 13.0 | 0.00 | 0.00 | 0.00 | 65 | 1015.1 |
| 20260507130107 | 57 | 148 | 7.0 | 13.0 | 0.00 | 0.00 | 0.00 | 63 | 1015.1 |
| 20260507124607 | 57 | 116 | 6.1 | 12.2 | 0.00 | 0.00 | 0.00 | 64 | 1015.1 |
| 20260507124108 | 57 | 140 | 4.3 | 10.4 | 0.00 | 0.00 | 0.00 | 64 | 1015.1 |
| 20260507123607 | 56 | 112 | 4.3 | 10.4 | 0.00 | 0.00 | 0.00 | 65 | 1015.2 |
| 20260507123107 | 57 | 147 | 6.1 | 10.4 | 0.00 | 0.00 | 0.00 | 63 | 1015.2 |
| 20260507121606 | 57 | 147 | 4.3 | 10.4 | 0.00 | 0.00 | 0.00 | 64 | 1015.3 |
| 20260507120607 | 57 | 125 | 4.3 | 7.8 | 0.00 | 0.00 | 0.00 | 63 | 1015.3 |
| 20260507120108 | 57 | 132 | 4.3 | 10.4 | 0.00 | 0.00 | 0.00 | 61 | 1015.3 |
| 20260507114606 | 57 | 123 | 5.2 | 10.4 | 0.00 | 0.00 | 0.00 | 62 | 1015.4 |
| 20260507113107 | 57 | 125 | 5.2 | 8.7 | 0.00 | 0.00 | 0.00 | 60 | 1015.4 |
| 20260507111606 | 57 | 89 | 5.2 | 10.4 | 0.00 | 0.00 | 0.00 | 61 | 1015.5 |
| 20260507111107 | 57 | 128 | 5.2 | 10.4 | 0.00 | 0.00 | 0.00 | 60 | 1015.5 |
| 20260507110607 | 56 | 118 | 2.6 | 7.8 | 0.00 | 0.00 | 0.00 | 62 | 1015.6 |
| 20260507110108 | 56 | 156 | 2.6 | 7.8 | 0.00 | 0.00 | 0.00 | 58 | 1015.6 |